When you browse on this site, cookies collect data to enhance your experience and personalize the content and advertising you see.
Visit our Privacy Policy to learn more. By continuing to use the site, you agree to this use of cookies and data.
  • In Netherlands
  • List of Countries
  • For 7 days
  • Water Temperature
  • Satellite Maps
  • Weather Map
  • Weather Widgets
  • user-avatar
    Login

    Hourly Weather Bonn

    Today, 10 December, Monday

    Time Temperature Precipitation Wind Pressure Humidity
    00:00 +5°C° 0 mm 4 mps 755 mmHg 82%
    01:00 +5°C° 0.2 mm 4 mps 756 mmHg 82%
    02:00 +3°C° 0.2 mm 5 mps 756 mmHg 81%
    03:00 +3°C° 0.2 mm 5 mps 756 mmHg 81%
    04:00 +3°C° 0.1 mm 5 mps 757 mmHg 82%
    05:00 +3°C° 0.1 mm 5 mps 757 mmHg 83%
    06:00 +3°C° 0 mm 3 mps 758 mmHg 87%
    07:00 +3°C° 0.1 mm 3 mps 758 mmHg 86%
    08:00 +4°C° 0.1 mm 4 mps 759 mmHg 85%
    09:00 +3°C° 0.1 mm 5 mps 759 mmHg 84%
    10:00 +5°C° 0.3 mm 5 mps 759 mmHg 81%
    11:00 +5°C° 0.3 mm 5 mps 759 mmHg 78%
    12:00 +5°C° 0.3 mm 6 mps 759 mmHg 75%
    13:00 +4°C° 0.4 mm 6 mps 759 mmHg 76%
    14:00 +4°C° 0.4 mm 6 mps 759 mmHg 76%
    15:00 +5°C° 0.4 mm 5 mps 759 mmHg 76%
    16:00 +3°C° 0.2 mm 5 mps 759 mmHg 77%
    17:00 +4°C° 0.2 mm 4 mps 759 mmHg 78%
    18:00 +3°C° 0.2 mm 4 mps 760 mmHg 79%
    19:00 +3°C° 0 mm 4 mps 760 mmHg 80%
    20:00 +3°C° 0 mm 4 mps 760 mmHg 81%
    21:00 +3°C° 0 mm 4 mps 760 mmHg 81%
    22:00 +3°C° 0.1 mm 4 mps 760 mmHg 82%
    23:00 +1°C° 0.1 mm 4 mps 760 mmHg 84%

    Tomorrow, 11 December, Tuesday

    Time Temperature Precipitation Wind Pressure Humidity
    00:00 +1°C° 0.1 mm 4 mps 761 mmHg 85%
    01:00 +1°C° 0.1 mm 4 mps 761 mmHg 86%
    02:00 +1°C° 0.1 mm 4 mps 760 mmHg 87%
    03:00 +1°C° 0.1 mm 4 mps 760 mmHg 88%
    04:00 +1°C° 0.1 mm 4 mps 760 mmHg 88%
    05:00 +2°C° 0.1 mm 3 mps 760 mmHg 88%
    06:00 +2°C° 0.1 mm 3 mps 760 mmHg 89%
    07:00 +3°C° 0.1 mm 3 mps 761 mmHg 88%
    08:00 +3°C° 0.1 mm 3 mps 761 mmHg 87%
    09:00 +3°C° 0.1 mm 3 mps 761 mmHg 86%
    10:00 +4°C° 0.1 mm 3 mps 760 mmHg 82%
    11:00 +5°C° 0.1 mm 3 mps 760 mmHg 78%
    12:00 +5°C° 0.1 mm 4 mps 760 mmHg 73%
    13:00 +5°C° 0.1 mm 3 mps 760 mmHg 76%
    14:00 +4°C° 0.1 mm 3 mps 760 mmHg 78%
    15:00 +5°C° 0.1 mm 2 mps 760 mmHg 80%
    16:00 +4°C° 0 mm 2 mps 760 mmHg 83%
    17:00 +3°C° 0 mm 2 mps 760 mmHg 85%
    18:00 +4°C° 0 mm 1 mps 760 mmHg 88%
    19:00 +3°C° 0 mm 1 mps 760 mmHg 89%
    20:00 +3°C° 0 mm 1 mps 760 mmHg 89%
    21:00 +3°C° 0 mm 1 mps 760 mmHg 90%
    22:00 +3°C° 0 mm 1 mps 760 mmHg 91%
    23:00 +2°C° 0 mm 1 mps 760 mmHg 91%

    Day after tomorrow, 12 December, Wednesday

    Time Temperature Precipitation Wind Pressure Humidity
    00:00 +1°C° 0 mm 0 mps 760 mmHg 91%
    01:00 +1°C° 0 mm 0 mps 760 mmHg 92%
    02:00 +1°C° 0 mm 0 mps 760 mmHg 92%
    03:00 +1°C° 0 mm 0 mps 760 mmHg 92%
    04:00 +1°C° 0 mm 0 mps 760 mmHg 92%
    05:00 +1°C° 0 mm 0 mps 760 mmHg 93%
    06:00 +1°C° 0 mm 0 mps 760 mmHg 93%
    07:00 +2°C° 0 mm 0 mps 760 mmHg 91%
    08:00 +2°C° 0 mm 0 mps 760 mmHg 90%
    09:00 +3°C° 0 mm 1 mps 761 mmHg 89%
    10:00 +4°C° 0 mm 1 mps 760 mmHg 86%
    11:00 +5°C° 0 mm 1 mps 760 mmHg 83%
    12:00 +5°C° 0 mm 1 mps 760 mmHg 79%
    13:00 +5°C° 0 mm 1 mps 760 mmHg 80%
    14:00 +5°C° 0 mm 1 mps 759 mmHg 81%
    15:00 +5°C° 0 mm 1 mps 759 mmHg 82%
    16:00 +3°C° 0 mm 2 mps 759 mmHg 83%
    17:00 +3°C° 0 mm 2 mps 759 mmHg 84%
    18:00 +2°C° 0 mm 2 mps 759 mmHg 85%
    19:00 +2°C° 0 mm 2 mps 759 mmHg 86%
    20:00 +2°C° 0 mm 1 mps 759 mmHg 87%
    21:00 +2°C° 0 mm 1 mps 759 mmHg 88%
    22:00 +1°C° 0 mm 1 mps 759 mmHg 89%
    23:00 +1°C° 0 mm 1 mps 758 mmHg 89%

    13 December, Thursday

    Time Temperature Precipitation Wind Pressure Humidity
    00:00 +1°C° 0 mm 1 mps 758 mmHg 90%
    01:00 -1°C° 0 mm 2 mps 758 mmHg 91%
    02:00 -1°C° 0 mm 2 mps 757 mmHg 91%
    03:00 -1°C° 0 mm 2 mps 757 mmHg 92%
    04:00 -1°C° 0 mm 2 mps 757 mmHg 91%
    05:00 -1°C° 0 mm 2 mps 756 mmHg 90%
    06:00 -1°C° 0 mm 3 mps 756 mmHg 89%
    07:00 -1°C° 0 mm 3 mps 756 mmHg 85%
    08:00 -1°C° 0 mm 3 mps 756 mmHg 82%
    09:00 -1°C° 0 mm 4 mps 755 mmHg 78%
    10:00 -1°C° 0 mm 4 mps 755 mmHg 73%
    11:00 0°C° 0 mm 4 mps 755 mmHg 69%
    12:00 +1°C° 0 mm 4 mps 754 mmHg 64%
    13:00 0°C° 0 mm 4 mps 754 mmHg 66%
    14:00 +1°C° 0 mm 3 mps 754 mmHg 69%
    15:00 0°C° 0 mm 3 mps 754 mmHg 71%
    16:00 0°C° 0 mm 3 mps 754 mmHg 74%
    17:00 -1°C° 0 mm 3 mps 754 mmHg 78%
    18:00 -1°C° 0 mm 3 mps 754 mmHg 81%
    19:00 -1°C° 0 mm 3 mps 755 mmHg 82%
    20:00 -1°C° 0 mm 3 mps 755 mmHg 82%
    21:00 -2°C° 0 mm 3 mps 755 mmHg 83%
    22:00 -2°C° 0 mm 3 mps 755 mmHg 83%
    23:00 -2°C° 0 mm 3 mps 755 mmHg 83%

    14 December, Friday

    Time Temperature Precipitation Wind Pressure Humidity
    00:00 -2°C° 0 mm 2 mps 756 mmHg 84%
    01:00 -2°C° 0 mm 2 mps 756 mmHg 83%
    02:00 -2°C° 0 mm 2 mps 756 mmHg 83%
    03:00 -2°C° 0 mm 2 mps 756 mmHg 83%
    04:00 -2°C° 0 mm 2 mps 757 mmHg 83%
    05:00 -2°C° 0 mm 2 mps 757 mmHg 83%
    06:00 0°C° 0 mm 1 mps 757 mmHg 83%
    07:00 -2°C° 0 mm 2 mps 758 mmHg 80%
    08:00 -2°C° 0 mm 2 mps 758 mmHg 77%
    09:00 -1°C° 0 mm 2 mps 759 mmHg 74%
    10:00 +1°C° 0 mm 2 mps 759 mmHg 70%
    11:00 +1°C° 0 mm 2 mps 759 mmHg 66%
    12:00 +3°C° 0 mm 1 mps 760 mmHg 62%
    13:00 +3°C° 0 mm 1 mps 760 mmHg 65%
    14:00 +2°C° 0 mm 1 mps 760 mmHg 69%
    15:00 +2°C° 0 mm 1 mps 760 mmHg 72%
    16:00 +1°C° 0 mm 1 mps 761 mmHg 75%
    17:00 -1°C° 0 mm 2 mps 761 mmHg 77%
    18:00 -2°C° 0 mm 2 mps 761 mmHg 80%
    19:00 -2°C° 0 mm 2 mps 762 mmHg 79%
    20:00 -2°C° 0 mm 2 mps 762 mmHg 79%
    21:00 -2°C° 0 mm 2 mps 762 mmHg 79%
    22:00 -2°C° 0 mm 2 mps 762 mmHg 80%
    23:00 0°C° 0 mm 1 mps 762 mmHg 81%

    15 December, Saturday

    Time Temperature Precipitation Wind Pressure Humidity
    00:00 +1°C° 0 mm 1 mps 763 mmHg 83%
    01:00 +1°C° 0 mm 1 mps 763 mmHg 84%
    02:00 +1°C° 0 mm 1 mps 763 mmHg 85%
    03:00 -1°C° 0 mm 2 mps 763 mmHg 86%
    04:00 +1°C° 0 mm 2 mps 763 mmHg 87%
    05:00 +1°C° 0 mm 2 mps 762 mmHg 88%
    06:00 +2°C° 0 mm 2 mps 762 mmHg 89%
    07:00 +2°C° 0 mm 2 mps 763 mmHg 89%
    08:00 +3°C° 0 mm 2 mps 763 mmHg 90%
    09:00 +2°C° 0 mm 3 mps 763 mmHg 90%
    10:00 +3°C° 0 mm 3 mps 763 mmHg 88%
    11:00 +4°C° 0 mm 3 mps 762 mmHg 86%
    12:00 +5°C° 0 mm 3 mps 762 mmHg 84%
    13:00 +5°C° 0.1 mm 3 mps 762 mmHg 86%
    14:00 +4°C° 0.1 mm 3 mps 762 mmHg 88%
    15:00 +4°C° 0.1 mm 3 mps 761 mmHg 90%
    16:00 +4°C° 0.5 mm 4 mps 761 mmHg 90%
    17:00 +4°C° 0.5 mm 4 mps 761 mmHg 91%
    18:00 +4°C° 0.5 mm 4 mps 761 mmHg 91%
    19:00 +4°C° 1.4 mm 4 mps 761 mmHg 91%
    20:00 +4°C° 1.4 mm 4 mps 761 mmHg 91%
    21:00 +4°C° 1.4 mm 4 mps 761 mmHg 91%
    22:00 +5°C° 0.6 mm 4 mps 760 mmHg 91%
    23:00 +5°C° 0.6 mm 4 mps 760 mmHg 90%
    Show more